Wind_Speed
23 22 21 22 24 25 24 22 21 21 21 21 21 19 17 15 13 11 10 9 8 7 7 7 7 7 6 5 5 5 7 8 9 10 11 11 12 13 14 16 17 19 20 21 22 23 24 25 26 27 28 28 28 28 28 28 27 27 27 27 27 27 27 27 26 26 26 26 25
20 18 17 18 20 21 20 18 17 18 19 18 17 16 15 13 12 11 9 7 7 6 6 6 5 5 5 6 6 7 9 10 10 11 11 12 13 14 15 17 18 20 21 22 23 23 24 26 27 28 28 27 27 28 28 28 28 27 27 28 28 27 27 27 26 26 26 25 25
13 11 11 13 15 17 17 17 17 17 17 16 13 13 13 12 11 10 8 7 7 6 5 4 4 4 4 5 7 8 9 10 10 10 11 12 13 15 16 18 19 20 21 22 23 24 26 27 28 27 27 27 27 28 28 28 28 28 27 28 28 27 26 26 26 26 25 25 25
2 3 7 11 14 16 16 17 16 15 14 13 12 12 12 12 10 9 8 7 6 5 4 3 3 3 4 5 6 7 8 9 9 10 11 13 14 16 17 18 20 21 22 23 24 26 27 28 28 27 27 28 28 28 28 28 28 28 27 27 27 26 26 26 26 26 25 25 25
6 8 10 12 13 14 14 13 13 12 12 12 13 12 12 10 9 8 7 5 4 3 3 3 3 4 5 5 6 7 8 9 10 11 13 14 16 17 18 20 21 22 23 24 26 28 29 28 28 28 29 29 29 29 29 29 29 28 28 28 27 26 26 26 26 26 25 25 25
9 10 10 10 11 10 10 9 9 10 11 12 12 12 10 8 7 5 4 4 4 4 4 4 4 4 5 6 6 7 8 10 11 12 14 16 17 18 20 21 22 23 24 25 27 29 29 29 29 29 30 30 29 30 30 29 29 29 29 28 28 27 27 27 27 26 26 26 26
9 9 9 8 8 8 8 8 8 9 10 10 10 9 8 7 7 6 6 5 5 4 4 4 3 4 4 5 6 8 9 10 12 13 15 17 18 19 21 22 23 24 25 27 29 29 29 30 30 30 29 29 29 29 29 29 29 29 29 29 29 28 28 27 27 27 26 26 26
7 7 7 7 7 7 8 8 8 8 8 8 8 7 7 8 7 7 6 6 5 4 4 4 3 3 4 5 6 8 9 11 13 15 16 18 19 20 22 23 24 26 27 28 28 28 28 28 29 28 28 28 27 27 27 27 27 27 28 28 28 28 27 27 27 26 26 26 26
6 6 5 6 6 7 8 8 7 7 7 7 7 6 7 7 7 7 6 5 5 4 4 4 3 3 4 5 7 9 11 12 14 16 17 18 19 21 22 23 25 26 26 26 26 26 26 26 26 26 25 25 25 25 25 25 25 25 26 26 26 26 26 26 26 26 25 26 26
5 5 5 6 6 7 7 7 6 6 6 7 7 6 6 6 6 5 5 4 4 4 4 3 3 3 5 6 8 10 12 13 15 16 17 19 20 21 22 23 24 24 24 23 23 24 24 24 24 24 25 25 25 25 26 25 25 25 25 26 26 26 26 25 25 25 25 25 26
6 6 6 6 7 7 7 6 6 6 6 6 6 5 4 4 4 4 4 4 4 4 3 3 3 5 7 8 10 11 13 14 15 17 18 19 21 22 23 23 23 23 23 23 24 24 24 25 25 26 26 27 27 27 27 27 27 27 27 28 28 27 27 27 27 27 27 27 27
6 6 6 6 6 6 6 6 6 5 5 5 4 4 3 3 3 3 3 3 3 3 2 2 4 6 8 9 11 12 13 15 16 18 19 20 22 22 23 23 23 24 24 25 25 26 26 26 27 27 28 28 28 28 28 28 28 28 29 29 29 29 29 29 29 28 28 27 27
7 7 7 7 7 6 6 6 5 5 5 5 5 4 4 4 4 4 4 3 2 1 2 4 6 7 9 11 12 13 15 16 18 19 20 22 22 23 23 23 24 24 25 26 26 26 26 27 27 27 28 28 28 28 28 28 28 28 28 29 28 28 28 28 28 28 27 27 27
8 8 8 8 7 7 7 6 6 6 6 6 6 5 5 5 4 3 2 2 1 2 4 6 7 9 11 12 13 15 16 18 19 21 21 22 22 22 23 23 24 25 25 26 26 26 26 27 27 28 28 28 29 29 29 29 28 28 28 28 28 27 27 27 27 27 26 26 26
9 9 9 8 8 7 7 7 7 6 6 6 5 5 5 4 3 2 2 2 3 4 6 8 9 11 12 14 15 17 18 19 20 21 21 22 22 23 23 24 25 25 26 26 26 26 27 27 27 28 28 29 29 29 29 29 28 28 28 27 27 27 27 27 27 27 26 26 26
9 9 8 7 7 6 6 6 6 6 6 5 5 4 3 3 3 3 4 4 5 6 8 9 11 12 14 15 16 18 19 20 21 21 22 22 23 24 24 25 25 26 26 26 26 27 27 27 28 28 28 29 29 29 29 29 29 28 28 28 28 28 28 28 28 27 27 27 26
7 7 6 6 6 6 6 6 6 6 5 5 3 3 2 3 4 5 5 6 7 8 9 11 12 14 15 16 17 19 20 21 21 22 22 23 24 25 25 25 26 26 26 26 27 27 28 28 28 29 29 29 29 29 30 29 29 29 29 29 29 29 29 29 29 28 28 28 28
5 5 5 5 5 6 6 6 6 5 4 3 2 2 2 4 5 6 6 7 8 9 11 13 14 15 16 18 19 20 21 22 22 23 24 24 25 25 25 25 26 26 26 26 27 28 28 29 29 29 30 30 30 30 30 30 30 30 30 30 30 30 30 30 30 29 29 29 29
4 4 5 5 6 6 6 6 5 4 3 3 1 2 4 6 6 7 7 8 10 11 13 14 16 17 18 19 20 22 22 23 24 24 25 25 25 25 25 25 26 26 27 27 28 29 29 30 30 30 30 30 31 31 31 31 31 31 31 31 31 31 30 30 30 30 29 29 29
5 5 5 6 5 5 5 4 4 3 3 1 1 4 6 6 7 8 9 11 12 13 14 16 17 18 19 21 22 23 23 24 24 24 25 25 24 25 25 26 26 27 28 29 29 30 30 31 31 31 31 31 31 31 31 31 31 31 31 30 30 30 29 29 28 28 28 27 27
5 5 5 4 4 4 3 3 3 3 2 0 3 5 6 7 8 10 11 13 14 15 16 17 18 19 20 21 22 22 23 23 23 23 24 24 24 25 26 27 28 29 29 30 30 30 31 31 31 31 30 30 30 30 30 30 30 30 30 30 29 28 28 27 27 27 26 26 26
5 4 4 4 3 4 4 4 3 2 1 1 3 5 7 9 10 12 13 14 15 15 16 17 18 19 20 20 21 21 22 22 22 23 24 25 26 27 28 28 29 30 30 30 30 31 30 30 30 30 30 30 30 30 30 30 30 30 29 29 28 28 28 28 27 27 27 27 27
4 4 4 5 5 5 5 4 3 1 1 4 6 8 10 11 12 13 13 14 14 15 16 17 17 18 19 19 20 21 21 22 23 24 25 26 27 28 28 29 29 29 30 30 30 30 30 30 30 29 29 29 29 29 29 29 29 29 28 28 28 28 28 28 28 28 28 29 29
4 4 4 4 3 2 1 2 4 6 7 8 10 11 12 13 13 13 13 13 13 14 15 16 17 18 19 20 21 21 22 23 25 26 26 27 27 28 28 28 28 28 29 29 29 29 28 28 28 28 28 28 28 27 27 27 26 26 25 26 26 26 27 27 28 28 28 28 29
2 2 2 4 6 8 9 10 11 11 12 12 12 13 13 13 12 12 12 12 12 14 16 17 19 20 21 21 22 23 24 24 25 26 26 26 26 27 27 27 27 27 27 27 27 27 27 26 26 26 26 26 26 25 24 24 23 23 23 24 24 24 25 26 26 26 27 27 28
6 8 10 12 13 13 13 12 12 12 12 13 13 13 13 13 12 11 10 11 13 15 18 19 20 21 21 22 23 23 24 24 25 25 25 26 26 26 26 27 27 27 27 26 26 26 25 25 25 25 25 24 24 23 23 23 22 23 23 23 23 23 24 24 25 26 26 26 27
11 12 13 14 13 12 11 11 11 12 12 13 14 14 14 12 10 9 10 12 15 18 19 20 21 21 22 22 23 23 24 24 25 25 25 26 26 27 27 27 27 26 26 26 25 25 25 25 25 25 25 24 23 23 22 23 23 23 23 23 23 23 23 24 24 25 26 27 28
12 12 11 10 10 10 10 11 12 13 14 14 14 13 11 9 8 9 12 15 17 19 20 20 21 21 22 22 23 24 24 25 25 25 26 26 26 26 27 26 26 26 26 26 26 26 26 26 26 25 25 23 23 23 23 23 24 24 24 23 23 24 24 24 25 26 27 28 29
11 10 9 9 10 11 12 13 14 14 15 14 12 10 8 8 9 11 14 17 19 20 20 21 21 21 22 23 24 24 25 25 25 25 25 26 26 26 26 26 26 26 27 27 27 27 27 27 26 25 24 23 23 24 24 25 25 25 25 25 25 25 26 27 27 27 27 29 29
11 10 11 11 12 14 14 15 15 14 12 10 8 8 8 9 10 13 16 18 20 21 21 21 21 22 23 24 24 25 25 25 25 25 25 25 26 26 27 27 27 27 27 27 27 27 26 26 25 24 24 24 24 25 26 26 27 27 27 26 27 27 27 28 28 28 28 28 28
11 12 13 14 15 16 16 15 13 11 9 7 7 7 8 10 12 15 18 20 21 21 21 21 22 22 23 23 24 24 24 24 24 24 25 26 26 27 27 27 28 28 27 27 27 26 25 25 25 25 25 25 26 27 27 28 28 28 27 27 27 27 27 27 27 27 27 27 27
12 13 15 16 16 15 13 11 9 7 6 6 7 8 10 12 15 18 20 21 21 21 21 21 22 22 23 23 23 23 23 24 24 25 26 26 27 27 27 28 28 27 27 26 26 25 25 25 25 25 26 27 27 28 28 29 28 28 27 27 27 27 27 27 27 27 27 28 28
13 14 16 16 15 12 9 7 6 5 5 6 7 10 12 15 18 20 21 21 21 20 20 21 21 21 22 22 22 23 24 24 25 26 26 27 27 27 27 28 27 27 26 26 25 25 25 25 26 27 27 28 28 29 28 28 27 27 26 26 26 27 27 28 28 28 28 29 29
16 16 17 16 13 10 7 6 4 4 5 7 9 12 15 18 20 21 21 20 19 19 19 20 20 20 21 22 22 23 24 25 26 26 26 27 27 27 27 28 27 27 26 25 25 25 26 26 27 28 28 28 28 28 27 27 26 26 26 26 27 28 28 28 29 29 30 30 30
18 18 17 15 11 8 6 5 4 5 7 9 12 15 17 19 20 20 19 18 18 18 18 19 20 21 21 22 23 24 25 25 26 26 26 27 27 27 27 28 27 26 25 25 25 26 26 27 28 28 28 28 27 27 26 26 25 25 26 27 27 28 29 29 30 30 30 30 30
16 15 13 9 6 5 4 4 5 7 9 12 14 16 18 19 19 18 17 17 17 17 18 19 20 21 22 23 24 24 25 25 26 26 27 27 27 27 27 27 26 25 25 25 25 26 27 27 28 28 28 27 27 26 25 25 24 25 26 27 28 29 31 31 31 31 32 31 31
7 6 5 4 2 1 3 5 7 10 12 14 16 17 18 18 17 16 15 16 17 18 19 20 21 22 22 23 24 24 25 25 26 27 27 27 27 26 25 25 25 24 25 25 26 27 27 28 28 28 28 27 27 26 25 24 24 25 26 27 29 30 31 32 31 31 31 31 31
5 5 3 2 1 3 5 8 10 12 14 15 16 17 17 16 15 15 15 16 17 18 19 20 21 22 23 23 24 25 26 26 27 27 27 26 25 24 23 23 24 24 25 26 27 28 28 28 28 27 27 27 27 26 25 24 24 25 26 27 29 30 30 29 28 27 27 27 26
5 3 2 2 4 7 9 11 13 14 15 16 17 16 15 15 15 15 17 17 18 19 20 20 21 22 23 24 25 26 26 27 27 26 25 24 22 21 21 22 24 25 27 27 28 28 28 28 27 27 27 27 27 26 25 24 24 24 25 26 26 25 24 22 21 20 20 20 21
4 3 4 5 7 9 11 13 14 15 15 16 16 15 14 15 16 17 18 18 19 19 20 21 22 23 24 25 25 26 27 27 26 25 23 21 20 20 21 23 25 26 28 28 28 27 27 27 27 27 27 27 26 26 25 23 22 22 22 21 19 18 17 17 17 18 19 20 22
4 5 7 8 10 12 13 14 15 15 15 15 14 14 15 16 17 17 18 18 19 19 20 21 23 24 25 25 25 26 26 26 24 23 21 20 20 21 22 24 26 27 27 27 27 26 26 26 27 27 27 26 26 25 23 21 19 18 17 17 17 17 17 19 20 21 22 23 24
Wind_Direction
301 294 279 258 239 226 216 210 204 198 192 188 185 185 185 184 183 182 183 186 185 185 188 194 202 208 215 224 238 254 265 272 277 281 284 288 290 291 291 290 289 289 290 290 291 291 290 289 286 284 284 286 288 289 290 290 290 290 290 289 289 289 289 288 287 287 286 284 283
301 291 274 251 229 214 203 194 184 177 174 173 173 175 176 173 170 168 170 173 168 165 169 180 194 207 222 238 251 261 268 274 278 283 287 290 291 290 289 288 288 288 289 289 289 288 287 284 282 282 284 287 288 288 289 289 289 289 289 288 288 288 288 287 286 286 285 285 284
298 278 250 224 202 189 180 171 163 158 160 166 163 160 159 157 155 155 152 142 139 140 149 164 181 206 233 250 260 265 270 274 279 284 288 289 289 287 286 286 287 287 287 287 287 286 284 281 281 283 286 287 288 288 288 288 288 288 288 287 287 287 286 285 284 284 284 283 283
286 183 170 169 167 164 162 160 160 160 159 157 153 147 144 146 145 141 134 128 127 133 148 168 192 221 245 259 267 271 275 280 284 288 288 287 286 285 285 286 286 287 286 286 286 284 282 281 283 285 286 287 287 287 287 287 287 286 285 285 285 284 284 283 283 283 282 282 281
112 122 131 139 146 149 149 150 155 158 156 151 147 143 140 140 138 136 136 139 151 170 190 209 232 248 258 267 276 282 285 287 290 289 288 286 285 284 285 285 285 285 286 286 284 282 281 283 284 285 286 286 285 285 284 284 284 283 283 282 282 281 281 281 281 281 281 280 280
110 116 121 127 134 142 147 146 147 148 147 144 144 146 148 150 153 159 171 190 202 213 225 240 255 266 273 279 284 289 291 292 290 288 286 284 284 284 284 284 284 285 286 285 283 281 282 283 284 284 284 283 283 282 282 282 281 280 280 279 279 278 278 278 278 278 278 278 277
111 113 114 117 123 127 131 135 139 143 146 149 155 164 172 176 185 192 199 207 211 218 229 240 254 267 278 283 287 290 291 289 287 285 283 283 283 283 283 283 284 285 284 282 281 281 282 283 283 282 282 281 281 280 280 280 280 279 278 277 277 277 276 276 276 276 275 275 275
110 110 112 115 121 126 131 136 141 148 154 159 163 170 176 179 183 188 193 199 204 211 219 226 238 255 270 279 285 287 286 285 284 283 282 283 283 283 283 284 284 283 281 280 280 281 282 283 282 281 281 281 281 281 282 282 281 280 278 278 277 277 276 275 275 275 274 274 274
113 114 119 125 131 137 140 141 143 146 148 149 150 151 155 161 163 169 176 183 188 195 203 212 226 247 265 276 281 282 282 282 282 282 282 283 283 284 285 285 284 282 281 281 282 284 285 285 285 284 285 285 285 286 287 287 286 284 283 281 281 280 280 279 278 277 277 276 276
129 132 136 138 142 146 147 144 141 138 137 136 136 136 138 143 149 156 165 172 178 184 190 201 222 248 266 273 277 278 279 279 280 281 282 283 284 285 286 285 284 284 284 286 287 289 290 291 291 291 292 292 292 292 293 292 291 289 288 287 286 285 285 284 283 282 281 280 279
145 147 148 147 149 151 150 144 138 134 132 129 129 127 127 131 143 156 166 170 174 179 188 206 238 261 270 274 275 276 277 278 280 282 283 283 284 285 286 286 286 287 288 290 291 292 293 294 294 294 294 295 295 295 294 294 293 292 290 289 288 288 287 286 285 285 284 283 283
150 150 150 149 149 148 146 140 134 129 125 120 119 116 114 117 129 142 150 158 162 173 199 239 264 271 274 274 275 277 278 279 281 282 283 283 284 285 285 286 287 288 289 291 292 293 294 294 294 295 295 295 294 294 294 293 293 292 291 290 289 288 288 287 287 286 285 285 284
150 149 148 146 145 141 136 131 126 122 119 116 115 114 115 118 121 125 129 136 148 195 265 279 281 281 279 278 278 279 280 281 281 282 282 283 283 284 284 285 287 288 290 291 291 292 293 293 294 294 295 295 294 294 294 293 293 292 291 291 290 289 288 288 288 287 287 286 285
144 142 140 138 136 131 125 121 119 119 118 118 117 116 115 113 112 111 105 91 25 312 300 294 288 284 282 281 281 281 281 282 282 282 281 282 282 283 285 286 287 288 289 290 290 291 292 293 293 294 294 295 294 294 294 294 293 293 292 292 291 290 290 289 289 289 289 288 287
133 131 130 128 126 124 122 118 118 119 119 117 113 111 107 99 89 72 41 6 337 318 305 296 289 286 284 283 283 283 284 284 283 282 281 281 282 284 285 287 287 288 288 289 290 290 291 292 293 293 294 294 294 294 294 294 293 293 292 292 292 291 291 291 290 290 290 289 289
133 131 130 128 126 127 128 128 128 126 123 118 110 99 87 68 41 16 357 341 326 312 300 292 288 286 286 286 286 287 287 285 283 281 281 282 284 285 286 286 287 287 288 288 289 290 291 291 292 293 293 294 294 294 294 294 293 293 292 292 292 291 291 291 291 290 290 289 289
140 139 138 136 139 142 145 146 143 139 132 124 108 84 54 21 356 344 334 322 310 299 291 287 286 287 288 288 288 288 287 284 283 282 283 284 285 286 286 286 286 287 288 289 290 291 291 292 292 292 293 293 293 293 293 293 293 292 292 291 291 290 290 290 289 289 289 288 288
152 150 152 156 160 162 160 156 152 148 143 132 106 53 3 333 323 318 310 300 292 286 284 285 286 288 288 289 288 287 285 284 283 284 285 285 285 285 285 286 286 287 288 290 290 291 292 292 292 292 292 292 292 292 291 291 291 290 290 289 289 288 288 288 287 287 287 286 286
173 173 174 174 173 170 165 159 154 152 144 122 89 342 322 314 308 299 289 283 281 281 283 286 287 287 287 287 287 285 284 284 284 285 285 285 285 285 286 286 287 289 290 290 291 291 291 291 291 291 291 290 290 289 289 288 288 287 287 286 286 286 286 285 285 285 284 283 283
188 184 180 177 176 173 168 162 152 142 130 106 330 313 308 303 292 281 275 275 278 282 285 286 287 287 286 286 285 284 284 285 285 285 285 285 286 286 287 288 289 290 291 291 291 291 291 290 290 289 289 288 288 287 287 286 286 285 285 284 284 284 284 284 283 283 283 282 281
190 182 177 176 174 170 164 156 147 136 127 340 309 302 293 281 273 271 273 277 281 284 286 286 286 286 286 285 285 286 286 286 286 286 286 287 287 288 289 290 291 291 291 291 290 290 289 289 288 288 287 287 286 286 285 285 284 284 284 283 283 283 283 283 283 282 282 282 281
180 177 172 161 150 142 138 135 126 115 99 301 284 278 273 269 270 273 277 282 285 286 287 287 287 288 288 288 289 289 289 289 289 289 289 290 290 290 291 291 291 291 290 290 289 289 288 288 287 287 287 286 285 285 284 284 283 283 283 283 283 282 282 282 282 282 281 281 280
185 174 156 142 134 131 129 128 117 89 300 277 269 266 265 266 270 275 280 284 286 288 289 290 291 292 292 293 293 294 293 293 293 293 292 292 292 292 292 291 290 290 289 289 288 288 288 288 287 287 287 286 286 285 285 285 284 284 284 284 284 283 283 282 282 281 280 280 280
157 147 142 139 142 155 198 258 280 282 277 267 261 259 261 265 270 276 281 284 287 289 291 293 294 295 295 296 296 297 297 297 296 296 295 294 293 293 292 292 291 290 289 288 288 288 288 288 288 288 289 288 288 288 288 287 287 286 286 286 286 285 285 283 282 281 280 280 279
186 217 263 279 282 284 286 287 284 278 270 260 255 255 259 264 270 276 281 285 289 292 294 295 295 295 295 296 297 298 298 298 298 297 296 296 295 294 294 293 292 291 290 290 290 290 291 291 291 292 293 293 293 293 293 292 291 290 290 289 289 288 288 286 285 283 282 281 281
263 277 283 285 284 284 282 278 271 264 257 254 252 254 258 264 269 276 284 291 295 297 297 296 295 295 296 298 299 299 299 298 298 298 298 297 297 296 295 294 293 293 293 293 294 295 296 296 297 298 299 299 299 298 297 296 295 294 293 293 292 292 291 290 288 287 285 284 283
282 284 284 281 277 271 264 257 252 249 249 250 252 254 258 263 271 283 293 297 299 299 298 296 296 297 299 300 300 300 300 299 299 299 298 298 297 297 297 296 296 296 296 297 299 300 301 301 302 302 302 302 302 301 300 299 298 297 297 296 295 293 292 290 289 288 287 285 284
289 287 282 273 262 252 246 243 243 244 247 249 251 254 260 269 283 294 299 301 301 299 298 297 298 299 300 301 301 301 300 300 300 299 299 299 298 298 298 298 299 300 301 302 303 303 303 304 303 303 302 302 302 302 301 301 301 300 299 297 295 293 291 289 288 287 286 284 283
288 284 273 259 249 244 242 242 243 244 246 248 251 258 270 285 295 300 302 303 302 300 298 299 300 301 301 302 301 301 301 300 300 300 300 300 300 300 300 301 302 303 304 304 305 305 304 304 303 303 302 302 303 303 302 302 302 300 299 296 294 291 290 288 286 285 283 282 281
280 275 266 257 251 247 245 243 242 243 244 249 259 273 286 297 303 305 305 304 301 300 299 300 301 302 302 302 301 301 301 301 301 301 301 302 302 302 303 304 304 305 305 306 306 305 304 304 303 302 302 302 303 304 304 302 302 300 298 295 293 290 288 286 284 282 280 278 277
270 266 263 260 256 252 247 243 241 242 247 260 275 290 301 307 309 308 305 303 301 300 300 301 302 302 302 301 301 301 301 302 302 303 304 304 304 305 305 306 306 306 307 307 306 306 305 304 303 303 303 304 305 305 304 302 301 299 296 294 291 289 286 283 281 279 277 275 274
262 260 261 261 259 254 247 241 240 246 260 277 292 305 312 313 310 307 304 301 300 300 301 302 302 302 302 302 302 302 303 304 304 305 305 306 306 307 307 307 307 308 308 308 307 306 305 305 305 305 305 306 306 305 304 302 300 297 294 291 288 286 283 280 278 277 276 274 272
257 255 257 260 260 256 248 244 249 263 281 296 306 312 314 312 309 305 302 300 300 301 302 302 302 302 302 303 303 304 304 305 305 306 306 307 307 308 308 308 308 309 309 309 308 307 307 307 307 307 308 307 306 305 303 301 298 295 292 289 287 285 282 280 278 277 276 274 273
255 253 253 255 256 255 252 255 266 284 298 307 310 312 312 311 308 304 300 299 300 301 302 303 303 303 303 304 305 305 305 305 306 306 307 308 309 309 309 309 309 309 310 310 309 309 309 309 310 310 310 309 307 305 302 300 296 293 291 289 287 284 283 281 279 277 276 274 273
256 251 249 248 249 250 254 264 280 296 305 310 313 313 313 311 306 302 299 300 302 303 304 304 304 304 304 304 305 305 305 306 307 308 309 310 310 310 310 310 310 310 311 311 312 312 312 313 313 312 311 310 307 304 301 298 295 292 290 288 286 285 284 282 279 277 276 274 273
253 244 237 233 233 239 254 275 295 308 314 317 317 315 313 309 304 301 301 304 305 306 306 306 306 305 305 305 306 306 306 307 308 309 310 311 311 311 311 310 311 312 313 314 315 316 316 316 315 314 312 309 306 304 301 297 294 292 290 288 287 286 285 282 279 276 275 274 273
228 206 194 188 196 243 294 312 320 324 323 321 318 314 310 305 303 303 306 308 309 308 308 307 306 306 306 306 307 307 308 309 310 310 311 311 312 312 312 312 313 315 316 318 319 319 318 317 315 313 311 309 306 303 301 297 295 293 291 289 288 287 284 281 278 276 274 273 272
139 137 133 119 18 336 333 333 332 329 325 320 315 310 306 304 305 308 310 311 311 309 308 307 307 307 307 308 308 309 309 310 310 311 312 312 313 314 315 316 317 318 320 321 321 321 319 317 315 313 311 308 306 304 302 299 296 293 291 289 288 287 285 282 279 278 276 276 276
112 104 73 13 346 338 335 334 331 326 321 315 310 307 305 306 309 311 312 311 310 309 308 307 307 308 309 310 310 310 310 311 312 312 313 314 315 316 318 320 321 321 322 323 323 321 319 317 315 313 311 310 308 306 304 300 296 294 292 291 290 289 290 290 290 290 290 291 292
74 44 10 351 341 337 334 331 326 320 315 310 307 305 307 310 312 312 311 310 310 309 309 309 309 310 311 312 312 311 312 313 314 315 316 317 318 319 321 323 324 324 324 324 323 321 319 317 315 313 312 311 310 308 305 301 298 296 296 298 301 305 308 310 310 308 306 304 302
26 7 355 346 340 336 331 325 318 314 310 306 306 308 311 312 312 311 311 311 310 310 311 311 312 313 313 313 313 313 314 316 317 319 320 320 321 322 324 325 326 325 325 323 322 320 318 317 316 314 313 313 312 310 308 305 304 304 308 313 318 320 319 316 313 309 306 303 300
Height
766 765 764 764 764 765 766 767 767 768 769 771 773 775 777 778 780 781 782 783 784 785 787 788 790 791 793 794 795 796 798 799 800 800 801 801 802 802 802 803 803 803 803 802 802 801 801 800 800 799 798 797 796 795 795 794 794 793 792 792 791 790 789 789 788 787 787 786 786
765 764 763 763 763 764 766 767 768 768 770 772 773 775 777 778 779 781 782 783 784 785 786 788 790 791 793 794 796 797 798 799 800 800 800 801 801 801 802 802 802 802 801 801 800 800 799 799 798 797 796 795 794 794 793 793 792 792 791 790 789 788 788 787 786 786 785 785 784
765 764 763 763 763 764 766 767 768 769 771 773 774 776 777 778 780 781 782 783 784 785 787 788 790 792 793 795 796 797 798 799 799 800 800 800 800 801 801 801 801 800 800 800 799 798 798 797 796 795 794 793 793 792 791 791 790 790 789 788 788 787 786 785 785 784 784 783 783
766 765 765 765 765 766 767 768 769 770 772 773 775 776 777 779 780 781 782 783 784 786 788 789 791 793 794 795 796 797 798 798 799 799 799 799 800 800 800 800 799 799 799 798 798 797 796 795 794 793 793 792 791 790 790 789 788 788 787 786 786 785 785 784 783 783 782 782 781
768 768 768 768 768 769 769 770 771 772 773 774 775 777 778 779 780 781 783 784 785 787 789 790 792 793 794 795 796 797 797 798 798 798 798 798 799 799 799 798 798 798 797 796 796 795 794 793 792 792 791 790 789 788 788 787 787 786 785 784 784 783 783 782 781 781 780 780 779
770 770 770 770 771 771 772 773 773 773 774 775 776 777 778 779 780 782 783 785 786 788 789 791 792 793 794 795 795 796 797 797 797 798 798 798 798 798 797 797 796 796 795 794 794 793 792 791 791 790 789 788 788 787 786 786 785 784 783 783 782 781 781 780 779 779 778 778 777
772 772 773 773 773 773 774 774 775 775 775 776 776 777 778 779 780 782 783 785 787 788 789 791 792 793 793 794 795 795 796 796 797 797 797 797 796 796 796 795 794 794 793 793 792 791 790 790 789 788 787 786 785 784 784 783 783 782 781 780 779 779 779 778 778 777 777 776 775
773 773 774 774 774 775 775 775 776 776 776 777 777 777 778 779 780 782 783 785 787 788 789 790 791 792 793 793 794 795 795 795 795 795 795 795 795 794 794 793 793 792 791 790 790 789 788 788 787 786 785 784 783 783 782 782 781 780 779 778 778 777 777 776 776 775 775 774 773
774 774 775 775 775 776 776 776 777 777 777 777 778 778 778 779 781 782 783 785 786 788 789 790 791 792 792 793 793 793 794 794 794 794 794 793 793 792 792 791 790 789 789 788 788 787 787 786 785 784 783 783 782 781 780 780 779 778 778 777 776 775 775 774 774 774 773 773 772
774 775 775 775 776 776 777 777 777 778 778 778 778 779 779 780 781 783 784 785 786 787 788 789 790 791 791 791 792 792 793 793 793 793 792 792 791 790 790 789 788 788 787 787 786 786 785 784 783 783 782 781 780 779 779 778 778 777 776 775 774 774 773 773 773 772 772 771 770
774 775 775 776 776 777 777 777 778 778 778 778 779 780 780 781 782 783 784 785 786 787 788 788 789 789 790 790 791 791 791 791 791 791 790 790 789 788 788 788 787 786 786 785 785 784 783 783 782 781 780 779 779 778 777 777 776 775 774 773 773 772 771 771 771 770 770 769 768
774 775 775 776 776 777 777 777 778 778 778 779 780 780 781 782 783 783 784 785 785 786 787 788 788 788 789 789 789 789 790 789 789 789 788 788 788 787 787 786 785 785 784 783 783 782 782 781 780 779 778 778 777 776 776 775 774 773 772 772 771 770 769 769 768 768 768 767 767
774 775 775 776 776 777 777 778 778 778 779 779 780 781 781 782 783 783 784 784 785 786 787 787 787 788 788 788 788 788 788 788 788 787 787 786 786 785 785 784 784 783 783 782 781 781 780 779 778 778 777 776 775 774 774 773 773 772 771 770 769 768 768 767 767 766 766 765 765
774 775 775 776 777 777 778 778 778 779 779 780 780 781 782 782 783 783 784 784 785 786 786 786 787 787 787 787 787 787 787 786 786 786 785 785 784 784 783 783 782 782 781 780 780 779 778 778 777 776 775 774 773 773 772 772 771 770 769 768 768 767 766 765 765 765 764 764 763
774 775 775 776 777 777 778 778 779 779 779 780 781 781 782 782 783 783 783 784 785 785 786 786 786 786 786 786 786 786 785 785 785 784 784 783 783 782 782 781 780 780 779 778 778 777 777 776 775 774 773 773 772 771 770 770 769 768 768 767 766 765 764 764 763 763 763 762 761
774 774 775 776 777 777 778 778 779 779 779 780 780 781 781 782 782 783 783 784 784 785 785 785 785 785 785 785 785 784 784 783 783 783 782 781 781 780 780 779 779 778 778 777 776 775 775 774 773 773 772 771 770 769 768 768 767 766 766 765 764 763 763 762 762 761 761 760 759
774 774 775 775 776 777 778 778 778 778 779 779 780 780 781 781 782 783 783 783 784 784 784 784 784 784 784 783 783 783 782 782 781 781 780 780 779 779 778 778 777 776 776 775 774 773 773 772 772 771 770 769 768 768 767 766 765 764 764 763 762 762 761 760 760 759 759 758 758
774 774 774 775 776 776 777 777 778 778 778 778 779 780 780 781 782 783 783 783 783 783 783 783 783 783 783 782 782 781 781 780 779 779 778 778 778 777 776 776 775 775 774 773 773 772 771 770 769 769 768 768 767 766 765 764 763 763 762 761 760 759 759 758 758 757 757 756 755
773 774 774 775 775 776 776 777 777 777 778 778 778 779 780 781 782 782 782 782 783 783 782 782 782 781 781 780 780 779 779 778 778 777 777 776 776 775 775 774 773 773 772 772 771 770 769 768 768 767 766 765 765 764 763 762 761 760 760 759 758 758 757 756 756 755 755 754 753
773 774 774 775 775 775 776 776 776 777 777 778 778 779 780 780 781 781 781 781 781 781 781 780 780 780 779 779 778 778 777 777 776 776 775 775 774 773 773 772 772 771 770 770 769 768 767 767 766 765 764 763 763 762 761 760 759 758 757 757 756 755 754 754 753 753 753 752 752
774 774 774 774 775 775 775 776 776 777 777 778 778 779 779 780 780 780 780 780 780 780 779 779 778 778 778 777 777 776 776 775 775 774 774 773 773 772 771 771 770 769 768 768 767 766 765 764 764 763 762 761 760 759 758 758 756 756 755 754 753 753 752 752 751 751 751 750 750
774 774 774 774 774 775 775 776 776 777 777 778 778 778 779 779 779 779 779 779 778 778 778 778 777 777 776 776 775 775 774 774 773 773 772 772 771 770 770 769 768 768 767 766 765 764 763 762 762 761 760 759 758 757 756 755 754 753 752 752 751 750 750 750 749 749 748 748 748
773 773 774 774 774 775 775 776 776 777 777 778 778 778 778 778 778 778 778 778 777 777 777 777 776 776 775 775 774 773 773 772 772 771 771 770 769 769 768 768 767 766 765 764 763 762 761 760 759 758 758 757 756 755 754 753 752 751 750 749 748 748 748 747 747 747 746 746 745
773 773 774 774 774 774 775 775 776 776 777 777 777 777 777 777 777 777 776 776 776 776 776 775 775 774 774 773 773 772 771 771 770 769 769 768 768 767 766 765 765 764 763 762 761 760 759 758 757 756 756 755 754 753 752 751 750 749 748 747 747 746 745 745 744 744 744 743 743
773 773 773 774 774 774 774 775 775 776 776 775 775 775 775 775 775 775 775 775 775 775 774 774 774 773 773 772 771 771 770 769 768 768 767 766 766 765 764 763 763 762 761 760 759 758 758 757 756 755 754 753 752 751 750 749 748 747 746 746 745 744 743 742 742 742 742 741 741
773 773 773 773 773 773 773 774 774 774 774 774 774 774 774 774 774 774 774 774 774 774 773 773 772 772 771 770 770 769 768 768 767 766 766 765 764 763 763 762 761 760 759 758 757 757 756 755 754 753 753 752 750 749 748 747 746 746 745 744 743 742 742 741 740 739 739 739 739
773 772 772 772 772 772 772 773 773 773 773 773 773 773 773 773 773 773 773 773 773 773 772 772 771 770 770 769 768 768 767 766 766 765 764 763 762 761 760 760 759 758 757 757 756 755 754 753 753 752 751 750 749 748 746 745 744 744 743 742 742 741 740 739 738 738 737 737 737
772 772 771 771 771 771 771 771 771 771 771 771 772 772 772 772 772 771 772 772 772 771 771 770 769 769 768 768 767 766 765 765 764 763 762 761 760 759 758 758 757 756 756 755 754 753 753 752 751 750 749 748 747 746 745 744 743 742 741 740 740 739 738 738 737 736 735 734 734
771 771 771 771 770 770 770 770 770 770 770 771 771 771 771 770 770 770 771 771 770 770 769 768 768 767 767 766 765 765 764 763 762 762 761 760 759 758 757 756 755 754 754 753 752 751 750 750 749 748 747 746 745 744 743 742 741 740 739 738 738 737 737 736 735 734 733 732 731
770 770 770 770 770 769 769 769 769 770 770 770 770 770 770 769 770 770 770 769 769 768 768 767 767 766 765 764 764 763 762 761 761 760 759 758 757 756 755 754 753 753 752 751 750 749 748 748 747 746 745 744 743 742 741 740 739 738 737 736 736 735 734 733 732 731 730 729 728
769 769 769 769 769 768 769 769 769 769 769 769 769 769 769 769 769 769 768 768 767 767 766 766 765 764 764 763 762 762 761 760 759 758 757 756 755 754 753 753 752 751 750 749 748 748 747 746 745 744 743 743 742 740 739 738 737 736 735 734 733 732 731 730 729 728 728 727 726
768 768 768 768 768 768 768 768 768 768 768 768 768 768 768 768 768 768 767 767 766 765 765 764 763 763 762 761 761 760 759 758 757 757 756 755 754 753 752 751 750 749 748 748 747 746 745 744 743 742 741 741 739 738 737 736 735 734 733 732 731 729 728 728 727 726 725 724 723
767 767 767 767 767 767 767 767 767 767 767 767 768 768 768 767 767 767 766 765 764 764 763 763 762 762 761 760 759 758 757 757 756 755 754 753 752 751 750 749 748 748 747 746 745 744 743 742 741 740 739 738 738 736 735 734 733 732 730 729 728 727 726 725 724 723 723 722 721
765 765 766 766 766 766 766 766 766 766 767 767 767 767 767 766 766 765 764 764 763 763 762 762 761 760 759 758 758 757 756 755 754 753 753 752 751 749 748 747 746 746 745 744 743 742 741 740 739 738 738 736 735 734 733 732 730 729 728 727 726 724 723 723 722 721 720 719 718
763 764 764 765 765 765 765 766 766 766 766 766 766 766 765 765 764 763 763 762 762 761 761 760 759 759 758 757 756 755 754 753 753 752 751 750 749 748 747 745 745 744 743 743 742 740 739 738 738 737 735 734 733 732 731 729 728 727 726 724 723 722 721 720 719 718 717 716 715
762 763 763 764 764 765 765 765 765 765 765 765 765 764 764 764 763 762 761 761 760 760 759 758 758 757 757 756 755 754 753 752 751 750 749 748 747 746 745 744 743 742 742 741 740 739 738 737 736 735 733 732 731 730 728 727 726 725 723 722 721 719 718 717 716 715 714 713 712
762 763 763 763 764 764 765 765 765 765 764 764 764 764 763 762 761 761 760 760 759 758 758 757 757 756 755 754 753 752 752 751 750 748 748 747 746 744 743 742 741 741 740 739 738 737 736 735 734 733 732 730 729 728 727 725 724 723 721 720 718 717 715 714 713 712 711 710 709
762 762 763 763 764 764 764 764 764 764 764 763 763 763 762 761 760 759 759 758 758 757 756 756 755 754 753 753 752 751 750 749 748 747 746 745 744 743 742 741 740 739 738 738 737 735 734 733 732 731 730 729 728 726 725 723 722 721 719 718 716 714 712 711 710 709 708 708 708
762 762 763 763 763 763 764 763 763 763 763 763 762 761 760 759 759 758 758 757 757 756 755 754 753 753 752 751 750 749 748 748 747 746 745 744 743 742 741 740 738 737 737 736 735 734 733 732 731 730 728 727 726 725 723 722 720 718 717 715 713 712 710 710 709 708 708 707 707
762 762 763 763 763 763 763 763 763 763 762 761 760 760 759 758 758 757 757 756 756 755 754 753 752 751 751 750 749 748 747 746 745 744 743 743 742 741 740 738 737 736 735 734 734 733 732 730 729 728 727 726 725 723 722 720 718 717 715 713 712 711 710 709 708 708 707 706 705
762 762 763 763 763 763 763 762 762 761 760 760 759 758 758 757 757 756 755 755 754 754 753 752 751 750 749 748 747 746 745 744 743 743 742 741 740 739 738 737 736 735 734 733 733 732 730 729 728 727 726 725 723 722 720 718 717 715 714 713 712 710 709 708 707 706 705 704 703